$DATE,$TIME,DM0600B,DM0602B,DM0604B,DM0614B,DM0616B,DM0618B,DM0624B,DM0628B,DM0630B,DM0634B,DM0606B,DM0608B,DM0610B
07/01/94,00:00:00,33,19,24,0,0,0,0,56,25,0,9,20,6
07/01/94,00:05:00,26,11,25,0,0,0,0,57,25,0,8,17,6
07/01/94,00:10:00,0,11,11,0,0,0,0,57,26,0,12,15,12
07/01/94,00:15:00,0,0,2,0,0,0,0,57,26,0,22,25,16
07/01/94,00:20:00,0,0,17,0,0,0,0,57,26,0,17,18,12
07/01/94,00:25:00,0,0,0,0,0,0,0,57,26,0,21,26,26
07/01/94,00:30:00,0,0,0,0,0,0,0,57,26,0,25,25,16
07/01/94,00:35:00,0,0,0,0,0,0,0,57,26,0,21,25,28
07/01/94,00:40:00,47,35,14,0,0,0,0,57,26,0,26,29,18
07/01/94,00:45:00,10,0,0,0,0,0,0,57,26,0,17,18,14
07/01/94,00:50:00,17,20,26,0,0,0,0,57,26,0,24,30,25
07/01/94,00:55:00,0,0,1,0,0,0,0,57,26,0,21,20,15
07/01/94,01:00:00,10,9,14,0,0,0,0,57,26,0,22,26,26
07/01/94,01:05:00,0,0,0,0,0,0,0,57,26,0,27,25,16
07/01/94,01:10:00,13,0,6,0,0,0,0,57,26,0,22,25,27
07/01/94,01:15:00,27,16,19,0,0,0,0,57,26,0,26,28,16
07/01/94,01:20:00,37,0,8,0,0,0,0,57,26,0,18,20,20
07/01/94,01:25:00,25,20,24,0,0,0,0,57,26,0,29,29,17
07/01/94,01:30:00,7,20,14,0,0,0,0,57,26,0,19,18,14
07/01/94,01:35:00,23,0,0,0,0,0,0,58,26,0,22,30,23
07/01/94,01:40:00,19,5,0,0,0,0,0,58,26,0,24,21,15
07/01/94,01:45:00,29,0,0,0,0,0,0,57,26,0,19,27,26
07/01/94,01:50:00,0,0,0,0,0,0,0,57,26,0,27,25,15
07/01/94,01:55:00,0,0,0,0,0,0,0,57,26,0,19,24,28
07/01/94,02:00:00,38,0,6,0,0,0,0,57,26,0,28,29,16
07/01/94,02:05:00,3,0,0,0,0,0,0,58,26,0,20,21,22
07/01/94,02:10:00,,,,,,,,,,,,,
07/01/94,02:15:00,,,,,,,,,,,,,
07/01/94,02:20:00,,,,,,,,,,,,,
07/01/94,02:25:00,,,,,,,,,,,,,
07/01/94,02:30:00,,,,,,,,,,,,,
07/01/94,02:35:00,,,,,,,,,,,,,
07/01/94,02:40:00,,,,,,,,,,,,,
07/01/94,02:45:00,,,,,,,,,,,,,
07/01/94,02:50:00,0,0,0,0,0,0,0,57,26,0,22,23,30
07/01/94,02:55:00,0,0,0,0,0,0,0,57,26,0,32,35,18
07/01/94,03:00:00,0,0,0,0,0,0,0,58,26,0,22,22,31
07/01/94,03:05:00,10,0,6,0,0,0,0,58,26,0,31,34,24
07/01/94,03:10:00,0,14,0,0,0,0,0,58,26,0,23,22,22
07/01/94,03:15:00,0,0,0,0,0,0,0,58,26,0,29,31,31
07/01/94,03:20:00,1,0,26,0,0,0,0,58,26,0,26,27,20
07/01/94,03:25:00,13,0,3,0,0,0,0,58,26,0,27,29,27
07/01/94,03:30:00,2,0,2,0,0,0,0,58,26,0,26,28,25
07/01/94,03:35:00,0,0,5,0,0,0,0,58,26,0,26,28,20
07/01/94,03:40:00,3,0,28,0,0,0,0,57,26,0,31,33,30
07/01/94,03:45:00,,,,,,,,,,,,,
07/01/94,03:50:00,,,,,,,,,,,,,
07/01/94,03:55:00,,,,,,,,,,,,,
07/01/94,04:00:00,,,,,,,,,,,,,
07/01/94,04:05:00,,,,,,,,,,,,,
07/01/94,04:10:00,,,,,,,,,,,,,
07/01/94,04:15:00,,,,,,,,,,,,,
07/01/94,04:20:00,,,,,,,,,,,,,
07/01/94,04:25:00,,,,,,,,,,,,,
07/01/94,04:30:00,,,,,,,,,,,,,
07/01/94,04:35:00,,,,,,,,,,,,,
07/01/94,04:40:00,,,,,,,,,,,,,
07/01/94,04:45:00,,,,,,,,,,,,,
07/01/94,04:50:00,,,,,,,,,,,,,
07/01/94,04:55:00,11,5,0,0,0,0,0,58,26,0,27,20,21
07/01/94,05:00:00,39,0,16,0,0,0,0,57,26,0,17,28,20
07/01/94,05:05:00,14,2,0,0,0,0,0,58,25,0,20,21,18
07/01/94,05:10:00,8,19,0,0,0,0,0,57,25,0,27,29,21
07/01/94,05:15:00,21,21,2,0,0,0,0,57,24,0,18,22,14
07/01/94,05:20:00,30,28,6,0,0,0,0,57,24,0,14,15,11
07/01/94,05:25:00,24,41,0,0,0,0,0,56,24,0,12,12,9
07/01/94,05:30:00,32,44,0,0,0,0,0,57,24,0,16,18,8
07/01/94,05:35:00,52,31,0,0,0,0,0,57,24,0,16,17,8
07/01/94,05:40:00,34,25,3,0,0,0,0,57,24,0,13,12,7
07/01/94,05:45:00,28,41,8,0,0,0,0,57,24,0,11,17,14
07/01/94,05:50:00,38,0,1,0,0,0,0,57,24,0,11,21,15
07/01/94,05:55:00,30,1,1,0,0,0,0,57,24,0,22,15,11
07/01/94,06:00:00,29,0,9,0,0,0,0,57,24,0,19,22,9
07/01/94,06:05:00,23,0,10,0,0,0,0,57,24,0,14,21,15
07/01/94,06:10:00,41,5,0,0,0,0,0,57,24,0,12,14,16
07/01/94,06:15:00,71,0,13,0,0,0,0,57,24,0,13,15,12
07/01/94,06:20:00,41,0,0,0,0,0,0,57,24,0,17,19,10
07/01/94,06:25:00,46,3,14,0,0,0,0,57,24,0,13,13,8
07/01/94,06:30:00,46,2,21,0,0,0,0,57,24,0,13,18,13
07/01/94,06:35:00,48,0,4,0,0,0,0,57,24,0,19,22,16
07/01/94,06:40:00,27,0,11,0,0,0,0,57,24,0,15,15,12
07/01/94,06:45:00,36,0,0,0,0,0,0,57,24,0,14,18,9
07/01/94,06:50:00,45,0,1,0,0,0,0,57,24,0,22,25,20
07/01/94,06:55:00,36,0,6,0,0,0,0,57,24,0,18,16,14
07/01/94,07:00:00,59,0,7,0,0,0,0,57,24,0,14,19,11
07/01/94,07:05:00,57,1,20,0,0,0,0,57,24,0,12,22,9
07/01/94,07:10:00,48,0,16,0,0,0,0,57,24,0,20,14,8
07/01/94,07:15:00,55,0,30,0,0,0,0,56,24,0,19,13,7
07/01/94,07:20:00,39,0,14,0,0,0,0,57,24,0,15,24,8
07/01/94,07:25:00,34,0,7,0,0,0,0,57,24,0,12,18,15
07/01/94,07:30:00,22,0,11,0,0,0,0,57,24,0,18,17,11
07/01/94,07:35:00,24,0,7,0,0,0,0,57,24,0,21,25,9
07/01/94,07:40:00,40,0,7,0,0,0,0,57,24,0,15,17,8
07/01/94,07:45:00,21,0,26,0,0,0,0,57,24,0,13,16,16
07/01/94,07:50:00,38,0,15,0,0,0,0,56,24,0,20,25,16
07/01/94,07:55:00,32,0,13,0,0,0,0,57,24,0,17,17,12
07/01/94,08:00:00,31,0,11,0,0,0,0,57,24,0,14,16,10
07/01/94,08:05:00,31,0,5,0,0,0,0,57,24,0,22,27,21
07/01/94,08:10:00,33,0,10,0,0,0,0,57,24,0,20,17,14
07/01/94,08:15:00,27,0,14,0,0,0,0,57,24,0,15,18,10
07/01/94,08:20:00,28,0,1,0,0,0,0,57,24,0,23,28,21
07/01/94,08:25:00,26,0,13,0,0,0,0,57,24,0,19,18,15
07/01/94,08:30:00,31,0,0,0,0,0,0,57,28,0,15,18,11
07/01/94,08:35:00,54,0,0,0,0,0,0,57,25,0,21,26,19
07/01/94,08:40:00,20,0,11,0,0,0,0,57,24,0,17,17,13
07/01/94,08:45:00,32,0,0,0,0,0,0,57,24,0,17,22,15
07/01/94,08:50:00,47,0,19,0,0,0,0,57,24,0,24,24,18
07/01/94,08:55:00,37,0,7,0,0,0,0,57,24,0,17,16,13
07/01/94,09:00:00,7,1,0,0,0,0,0,57,24,0,18,26,18
07/01/94,09:05:00,21,2,0,0,0,0,0,57,24,0,23,22,18
07/01/94,09:10:00,30,0,1,0,0,0,0,57,24,0,17,15,13
07/01/94,09:15:00,54,0,41,0,0,0,0,57,25,0,16,25,14
07/01/94,09:20:00,22,0,0,0,0,0,0,57,24,0,26,21,20
07/01/94,09:25:00,0,3,2,0,0,0,0,57,25,0,19,21,13
07/01/94,09:30:00,26,22,43,0,0,0,0,56,24,0,14,26,20
07/01/94,09:35:00,9,11,35,0,0,0,0,56,24,0,12,17,14
07/01/94,09:40:00,20,23,25,0,0,0,0,56,24,0,11,13,10
07/01/94,09:45:00,15,24,31,0,0,0,0,56,24,0,10,11,9
07/01/94,09:50:00,0,0,2,0,0,0,0,57,24,0,12,14,8
07/01/94,09:55:00,0,0,0,0,0,0,0,57,24,0,23,27,21
07/01/94,10:00:00,0,0,0,0,0,0,0,57,24,0,19,18,15
07/01/94,10:05:00,5,3,5,0,0,0,0,56,25,0,17,23,16
07/01/94,10:10:00,0,0,0,0,0,0,0,57,25,0,27,28,22
07/01/94,10:15:00,0,0,0,0,0,0,0,57,25,0,20,20,16
07/01/94,10:20:00,0,0,0,0,0,0,0,57,25,0,26,32,26
07/01/94,10:25:00,0,0,0,0,0,0,0,57,25,0,24,20,18
07/01/94,10:30:00,0,0,0,0,0,0,0,57,25,0,25,31,27
07/01/94,10:35:00,0,0,0,0,0,0,0,57,25,0,28,23,20
07/01/94,10:40:00,0,0,0,0,0,0,0,57,25,0,23,29,24
07/01/94,10:45:00,0,0,0,0,0,0,0,58,39,0,31,28,26
07/01/94,10:50:00,0,0,3,0,0,0,0,57,25,0,21,26,20
07/01/94,10:55:00,0,0,0,0,0,0,0,57,25,0,32,33,30
07/01/94,11:00:00,0,0,0,0,0,0,0,57,25,0,22,24,22
07/01/94,11:05:00,0,0,0,0,0,0,0,57,25,0,31,36,25
07/01/94,11:10:00,3,0,5,0,0,0,0,58,25,0,24,23,27
07/01/94,11:15:00,0,0,0,0,0,0,0,57,25,0,29,36,20
07/01/94,11:20:00,0,0,0,0,0,0,0,57,25,0,26,22,31
07/01/94,11:25:00,0,0,12,0,0,0,0,58,25,0,27,32,25
07/01/94,11:30:00,0,0,0,0,0,0,0,58,25,0,28,25,22
07/01/94,11:35:00,6,6,12,0,0,0,0,57,25,0,26,30,28
07/01/94,11:40:00,0,2,0,0,0,0,0,58,25,0,25,24,18
07/01/94,11:45:00,0,0,0,0,0,0,0,57,25,0,25,28,28
07/01/94,11:50:00,0,0,0,0,0,0,0,57,25,0,29,30,23
07/01/94,11:55:00,0,0,0,0,0,0,0,58,25,0,24,26,22
07/01/94,12:00:00,0,0,0,0,0,0,0,58,25,0,33,36,30
07/01/94,12:05:00,0,0,0,0,0,0,0,57,25,0,22,23,22
07/01/94,12:10:00,0,0,0,0,0,0,0,57,25,0,34,36,26
07/01/94,12:15:00,0,0,0,0,0,0,0,58,25,0,23,23,28
07/01/94,12:20:00,0,0,0,0,0,0,0,58,25,0,33,35,20
07/01/94,12:25:00,0,0,0,0,0,0,0,58,25,0,25,24,31
07/01/94,12:30:00,0,0,0,0,0,0,0,57,25,0,30,32,25
07/01/94,12:35:00,0,0,0,0,0,0,0,57,25,0,27,27,23
07/01/94,12:40:00,0,0,0,0,0,0,0,58,25,0,28,30,33
07/01/94,12:45:00,0,0,0,0,0,0,0,58,25,0,30,33,20
07/01/94,12:50:00,0,0,0,0,0,0,0,58,25,0,27,27,31
07/01/94,12:55:00,34,44,28,0,0,0,0,57,25,0,32,34,26
07/01/94,13:00:00,62,30,23,0,0,0,0,56,24,0,20,18,18
07/01/94,13:05:00,2,14,17,0,0,0,0,57,25,0,22,24,23
07/01/94,13:10:00,39,17,39,0,0,0,0,56,24,0,26,27,20
07/01/94,13:15:00,50,43,42,0,0,0,0,56,24,0,17,18,13
07/01/94,13:20:00,63,53,53,0,0,0,0,55,24,0,16,18,15
07/01/94,13:25:00,18,8,0,0,0,0,0,57,24,0,15,15,13
07/01/94,13:30:00,39,10,0,0,0,0,0,57,24,0,13,12,10
07/01/94,13:35:00,71,11,0,0,0,0,0,57,24,0,11,14,9
07/01/94,13:40:00,80,24,0,0,0,0,0,57,24,0,20,22,8
07/01/94,13:45:00,50,4,0,0,0,0,0,57,24,0,18,15,12
07/01/94,13:50:00,65,50,0,0,0,0,0,55,24,0,13,12,16
07/01/94,13:55:00,58,52,0,0,0,0,0,55,24,0,11,10,12
07/01/94,14:00:00,60,49,5,0,0,0,0,56,24,0,10,8,9
07/01/94,14:05:00,62,49,5,0,0,0,0,56,24,0,9,7,8
07/01/94,14:10:00,61,51,5,0,0,0,0,55,24,0,9,7,7
07/01/94,14:15:00,20,30,0,0,0,0,0,56,24,0,8,7,7
07/01/94,14:20:00,0,0,0,0,0,0,0,56,24,0,7,10,6
07/01/94,14:25:00,0,0,0,0,0,0,0,56,24,0,16,24,12
07/01/94,14:30:00,0,0,0,0,0,0,0,57,24,0,23,21,19
07/01/94,14:35:00,0,0,0,0,0,0,0,57,24,0,17,19,13
07/01/94,14:40:00,0,0,0,0,0,0,0,57,24,0,23,32,26
07/01/94,14:45:00,0,0,0,0,0,0,0,57,25,0,24,20,16
07/01/94,14:50:00,0,0,0,0,0,0,0,57,25,0,22,29,28
07/01/94,14:55:00,0,0,0,0,0,0,0,58,25,0,29,26,17
07/01/94,15:00:00,11,0,1,0,0,0,0,57,25,0,21,26,29
07/01/94,15:05:00,0,0,0,0,0,0,0,57,25,0,30,31,17
07/01/94,15:10:00,0,0,0,0,0,0,0,57,25,0,21,24,29
07/01/94,15:15:00,14,8,11,0,0,0,0,57,25,0,29,35,21
07/01/94,15:20:00,0,0,0,0,0,0,0,57,25,0,22,21,22
07/01/94,15:25:00,9,3,16,0,0,0,0,58,25,0,29,33,27
07/01/94,15:30:00,0,0,0,0,0,0,0,57,25,0,23,21,17
07/01/94,15:35:00,46,45,45,0,0,0,0,56,24,0,24,27,23
07/01/94,15:40:00,63,5,15,0,0,0,0,56,24,0,18,19,15
07/01/94,15:45:00,63,16,0,0,0,0,0,56,24,0,14,13,11
07/01/94,15:50:00,46,4,0,0,0,0,0,56,24,0,12,11,9
07/01/94,15:55:00,7,18,0,0,0,0,0,56,24,0,11,10,8
07/01/94,16:00:00,20,28,0,0,0,0,0,56,24,0,10,9,8
07/01/94,16:05:00,18,36,0,0,0,0,0,56,24,0,9,8,7
07/01/94,16:10:00,45,47,0,0,0,0,0,56,24,0,9,8,7
07/01/94,16:15:00,12,24,0,0,0,0,0,56,24,0,9,7,7
07/01/94,16:20:00,59,49,4,0,0,0,0,56,24,0,8,13,6
07/01/94,16:25:00,63,48,0,0,0,0,0,55,24,0,8,14,6
07/01/94,16:30:00,45,47,2,0,0,0,0,55,24,0,8,11,6
07/01/94,16:35:00,57,49,0,0,0,0,0,55,24,0,8,9,6
07/01/94,16:40:00,60,48,1,0,0,0,0,56,24,0,8,8,7
07/01/94,16:45:00,62,48,0,0,0,0,0,55,24,0,8,8,7
07/01/94,16:50:00,62,48,0,0,0,0,0,55,24,0,8,7,6
07/01/94,16:55:00,31,27,11,0,0,0,0,56,24,0,8,7,6
07/01/94,17:00:00,59,48,7,0,0,0,0,56,24,0,7,6,6
07/01/94,17:05:00,54,47,1,0,0,0,0,55,24,0,7,6,6
07/01/94,17:10:00,48,46,0,0,0,0,0,55,24,0,7,6,6
07/01/94,17:15:00,48,46,0,0,0,0,0,55,24,0,7,6,5
07/01/94,17:20:00,53,48,0,0,0,0,0,55,24,0,7,7,5
07/01/94,17:25:00,57,47,0,0,0,0,0,55,24,0,7,7,6
07/01/94,17:30:00,59,48,0,0,0,0,0,55,24,0,7,7,5
07/01/94,17:35:00,55,47,0,0,0,0,0,55,24,0,7,6,5
07/01/94,17:40:00,62,50,0,0,0,0,0,55,24,0,7,6,5
07/01/94,17:45:00,61,49,0,0,0,0,0,56,24,0,7,6,6
07/01/94,17:50:00,66,3,10,0,0,0,0,55,24,0,7,6,6
07/01/94,17:55:00,66,2,18,0,0,0,0,55,24,0,7,6,6
07/01/94,18:00:00,71,3,17,0,0,0,0,56,24,0,7,6,6
07/01/94,18:05:00,65,4,8,0,0,0,0,56,24,0,7,6,6
07/01/94,18:10:00,56,0,11,0,0,0,0,56,24,0,7,6,6
07/01/94,18:15:00,67,3,20,0,0,0,0,55,24,0,7,7,6
07/01/94,18:20:00,51,4,15,0,0,0,0,56,24,0,7,6,5
07/01/94,18:25:00,53,2,2,0,0,0,0,56,24,0,7,6,5
07/01/94,18:30:00,55,3,0,0,0,0,0,57,24,0,7,6,5
07/01/94,18:35:00,76,10,0,0,0,0,0,57,24,0,7,6,5
07/01/94,18:40:00,67,6,8,0,0,0,0,57,24,0,7,15,5
07/01/94,18:45:00,68,2,25,0,0,0,0,56,24,0,7,16,5
07/01/94,18:50:00,18,0,5,0,0,0,0,56,24,0,8,12,6
07/01/94,18:55:00,69,11,27,0,0,0,0,56,24,0,8,10,6
07/01/94,19:00:00,58,2,14,0,0,0,0,56,24,0,8,8,6
07/01/94,19:05:00,65,8,23,0,0,0,0,56,24,0,8,7,6
07/01/94,19:10:00,72,9,17,0,0,0,0,56,24,0,7,7,6
07/01/94,19:15:00,59,7,19,0,0,0,0,56,24,0,7,6,6
07/01/94,19:20:00,61,11,7,0,0,0,0,55,24,0,7,6,6
07/01/94,19:25:00,62,10,21,0,0,0,0,55,24,0,7,6,6
07/01/94,19:30:00,62,7,8,0,0,0,0,55,24,0,7,6,5
07/01/94,19:35:00,60,6,13,0,0,0,0,56,24,0,7,6,5
07/01/94,19:40:00,67,6,20,0,0,0,0,56,24,0,7,7,5
07/01/94,19:45:00,71,8,15,0,0,0,0,56,24,0,7,6,5
07/01/94,19:50:00,64,5,12,0,0,0,0,56,24,0,7,6,5
07/01/94,19:55:00,58,9,15,0,0,0,0,55,24,0,7,6,6
07/01/94,20:00:00,58,7,17,0,0,0,0,56,24,0,7,6,6
07/01/94,20:05:00,68,8,18,0,0,0,0,56,24,0,7,6,6
07/01/94,20:10:00,70,9,20,0,0,0,0,56,24,0,6,6,6
07/01/94,20:15:00,71,9,19,0,0,0,0,56,24,0,6,6,6
07/01/94,20:20:00,53,4,0,0,0,0,0,56,24,0,6,6,5
07/01/94,20:25:00,61,4,9,0,0,0,0,56,24,0,6,6,5
07/01/94,20:30:00,72,12,19,0,0,0,0,56,24,0,6,6,5
07/01/94,20:35:00,16,0,0,0,0,0,0,56,24,0,6,7,5
07/01/94,20:40:00,66,5,7,0,0,0,0,56,24,0,6,15,6
07/01/94,20:45:00,75,10,20,0,0,0,0,56,24,0,6,16,5
07/01/94,20:50:00,63,5,21,0,0,0,0,56,24,0,6,12,5
07/01/94,20:55:00,63,12,20,0,0,0,0,56,24,0,7,9,5
07/01/94,21:00:00,69,5,17,0,0,0,0,56,24,0,7,8,6
07/01/94,21:05:00,70,4,18,0,0,0,0,56,24,0,7,7,6
07/01/94,21:10:00,60,0,8,0,0,0,0,56,24,0,7,6,6
07/01/94,21:15:00,60,4,23,0,0,0,0,56,24,0,6,6,6
07/01/94,21:20:00,62,5,0,0,0,0,0,56,24,0,6,6,6
07/01/94,21:25:00,69,12,21,0,0,0,0,56,24,0,6,6,6
07/01/94,21:30:00,46,1,18,0,0,0,0,56,24,0,6,5,6
07/01/94,21:35:00,0,10,13,0,0,0,0,57,24,0,7,8,6
07/01/94,21:40:00,68,52,0,0,0,0,0,56,24,0,11,19,6
07/01/94,21:45:00,60,49,6,0,0,0,0,55,24,0,12,14,5
07/01/94,21:50:00,42,47,0,0,0,0,0,55,24,0,11,10,6
07/01/94,21:55:00,60,48,0,0,0,0,0,55,24,0,9,8,5
07/01/94,22:00:00,51,49,0,0,0,0,0,55,24,0,9,7,6
07/01/94,22:05:00,36,50,0,0,0,0,0,55,24,0,8,6,6
07/01/94,22:10:00,64,50,0,0,0,0,0,55,24,0,7,6,6
07/01/94,22:15:00,64,47,2,0,0,0,0,55,24,0,7,5,6
07/01/94,22:20:00,48,48,0,0,0,0,0,55,24,0,7,5,6
07/01/94,22:25:00,51,50,3,0,0,0,0,55,24,0,6,5,6
07/01/94,22:30:00,58,48,3,0,0,0,0,55,24,0,6,5,6
07/01/94,22:35:00,64,49,3,0,0,0,0,55,24,0,6,5,6
07/01/94,22:40:00,57,50,0,0,0,0,0,55,24,0,6,5,5
07/01/94,22:45:00,55,49,0,0,0,0,0,55,24,0,7,5,5
07/01/94,22:50:00,49,50,0,0,0,0,0,56,24,0,7,5,6
07/01/94,22:55:00,49,52,0,0,0,0,0,55,24,0,6,5,5
07/01/94,23:00:00,62,9,4,0,0,0,0,56,24,0,6,5,5
07/01/94,23:05:00,41,10,0,0,0,0,0,56,24,0,6,5,6
07/01/94,23:10:00,53,11,3,0,0,0,0,56,24,0,6,5,5
07/01/94,23:15:00,47,13,6,0,0,0,0,56,24,0,6,5,6
07/01/94,23:20:00,41,11,11,0,0,0,0,57,24,0,6,5,6
07/01/94,23:25:00,74,11,18,0,0,0,0,56,24,0,6,5,6
07/01/94,23:30:00,73,11,19,0,0,0,0,56,24,0,6,5,6
07/01/94,23:35:00,63,8,19,0,0,0,0,56,24,0,6,6,5
07/01/94,23:40:00,55,6,13,0,0,0,0,56,24,0,6,5,5
07/01/94,23:45:00,55,5,22,0,0,0,0,56,24,0,6,5,5
07/01/94,23:50:00,55,8,0,0,0,0,0,56,24,0,6,5,5
07/01/94,23:55:00,45,11,0,0,0,0,0,57,24,0,7,14,5
07/02/94,00:00:00,52,2,6,0,0,0,0,57,24,0,7,19,5
